Date String (YYYY-MM-DD hh:mm:ss) UTC,Instrument flags,Ambient pressure (hPa),Sample flow (lpm),Bypass flow (lpm),Sample temperature (°C),Ambient temperature (°C),ASC tube jacket temperature (°C),LED temperature (°C),Box temperature (°C),Sample RH (%),Span deviation,Mass concentration (μg/m³),Mass concentration (μg/m³),Mass concentration (μg/m³)
DateTimeUTC,F1_M11,P_M11,Q1_M11,Q2_M11,T1_M11,T2_M11,T3_M11,T4_M11,T5_M11,U1_M11,ZSPAN_M11,X0_M11,X2_M11,X1_M11
2022-01-21 13:00:00,,0823.0,5.00,0.00,22.5,22.2,00.0,31.4,24.3,13.5,-002.1,0012.46,0008.53,0008.17
2022-01-21 13:01:00,,0823.0,5.01,0.00,22.5,22.1,00.0,31.4,24.2,13.4,-002.3,0012.66,0008.65,0008.28
2022-01-21 13:02:00,,0823.0,4.99,0.00,22.5,22.0,00.0,31.4,24.2,13.4,-002.0,0012.93,0008.87,0008.48
2022-01-21 13:03:00,,0823.1,5.02,0.00,22.4,21.9,00.0,31.4,24.1,13.4,-001.9,0013.39,0009.15,0008.74
2022-01-21 13:04:00,,0823.1,4.99,0.00,22.4,21.8,00.0,31.4,24.0,13.4,-001.9,0013.54,0009.28,0008.87
2022-01-21 13:05:00,,0823.1,5.01,0.00,22.3,21.7,00.0,31.4,24.0,13.4,-002.0,0013.76,0009.44,0009.03
2022-01-21 13:06:00,,0823.1,4.99,0.00,22.3,21.7,00.0,31.3,24.0,13.5,-001.9,0013.84,0009.52,0009.13
2022-01-21 13:07:00,,0823.1,5.00,0.00,22.3,21.6,00.0,31.3,23.9,13.6,-001.8,0013.85,0009.49,0009.11
2022-01-21 13:08:00,,0823.0,4.99,0.00,22.2,21.6,00.0,31.3,23.9,13.7,-001.8,0013.75,0009.36,0008.99
2022-01-21 13:09:00,,0823.0,5.01,0.00,22.2,21.5,00.0,31.3,23.9,13.8,-001.5,0013.26,0009.14,0008.81
2022-01-21 13:10:00,,0823.1,4.99,0.00,22.2,21.5,00.0,31.3,23.9,13.9,-001.5,0012.83,0008.83,0008.55
2022-01-21 13:11:00,,0823.1,5.01,0.00,22.2,21.5,00.0,31.3,23.9,14.1,-001.3,0011.99,0008.46,0008.20
2022-01-21 13:12:00,,0823.1,4.99,0.00,22.1,21.5,00.0,31.3,23.8,14.2,-001.2,0011.42,0008.04,0007.81
2022-01-21 13:13:00,,0823.2,4.99,0.00,22.2,21.7,00.0,31.3,23.9,14.3,-001.3,0011.00,0007.61,0007.39
2022-01-21 13:14:00,,0823.4,5.00,0.00,22.3,22.5,00.0,31.3,24.1,14.2,-001.3,0010.48,0007.12,0006.95
2022-01-21 13:15:00,,0823.3,4.99,0.00,22.4,23.2,00.0,31.3,24.4,14.2,-001.1,0009.96,0006.74,0006.56
2022-01-21 13:16:00,,0823.5,5.00,0.00,22.5,23.2,00.0,31.4,24.5,14.1,-001.1,0009.47,0006.35,0006.18
2022-01-21 13:17:00,,0823.7,5.02,0.00,22.5,22.9,00.0,31.4,24.4,14.2,-001.2,0009.12,0006.04,0005.86
2022-01-21 13:18:00,,0823.6,5.01,0.00,22.5,22.7,00.0,31.4,24.4,14.2,-001.0,0008.81,0005.84,0005.64
2022-01-21 13:19:00,,0823.7,4.98,0.00,22.5,22.5,00.0,31.4,24.3,14.1,-000.7,0009.08,0006.11,0005.89
2022-01-21 13:20:00,,0823.7,5.01,0.00,22.4,22.3,00.0,31.4,24.1,13.9,-000.9,0009.93,0006.71,0006.45
2022-01-21 13:21:00,,0823.7,5.00,0.00,22.4,22.0,00.0,31.4,24.0,13.9,-001.3,0010.86,0007.37,0007.08
2022-01-21 13:22:00,,0823.7,5.00,0.00,22.3,21.9,00.0,31.4,23.9,13.9,-001.5,0011.56,0007.91,0007.63
2022-01-21 13:23:00,,0823.6,4.99,0.00,22.3,21.7,00.0,31.3,23.9,13.9,-001.6,0011.89,0008.15,0007.83
2022-01-21 13:24:00,,0823.6,5.01,0.00,22.2,21.6,00.0,31.3,23.9,13.9,-001.6,0012.00,0008.34,0008.02
2022-01-21 13:25:00,,0823.7,4.99,0.00,22.2,21.6,00.0,31.3,23.9,13.9,-001.7,0012.17,0008.59,0008.26
2022-01-21 13:26:00,,0823.7,5.01,0.00,22.2,21.5,00.0,31.3,23.9,13.9,-001.8,0012.34,0008.72,0008.42
2022-01-21 13:27:00,,0823.7,4.99,0.00,22.2,21.5,00.0,31.3,23.9,14.0,-001.7,0012.54,0008.86,0008.54
2022-01-21 13:28:00,,0823.7,5.02,0.00,22.2,21.5,00.0,31.3,23.9,14.0,-001.7,0012.64,0008.97,0008.67
2022-01-21 13:29:00,,0823.6,4.99,0.00,22.2,21.5,00.0,31.3,23.9,14.1,-001.8,0012.70,0009.03,0008.76
2022-01-21 13:30:00,,0823.6,5.00,0.00,22.2,21.5,00.0,31.2,23.9,14.1,-002.1,0012.17,0008.64,0008.43
2022-01-21 13:31:00,,0823.7,5.00,0.00,22.2,21.5,00.0,31.2,23.9,14.2,-002.3,0011.39,0008.08,0007.86
2022-01-21 13:32:00,,0823.6,5.01,0.00,22.2,21.5,00.0,31.2,23.9,14.1,-002.1,0010.88,0007.74,0007.53
2022-01-21 13:33:00,,0823.6,4.99,0.00,22.1,21.4,00.0,31.2,23.8,14.1,-001.9,0010.68,0007.57,0007.36
2022-01-21 13:34:00,,0823.6,4.99,0.00,22.1,21.5,00.0,31.2,23.8,14.0,-001.7,0010.76,0007.67,0007.46
2022-01-21 13:35:00,,0823.7,5.01,0.00,22.2,22.2,00.0,31.2,24.0,14.0,-001.9,0010.90,0007.78,0007.56
2022-01-21 13:36:00,,0823.7,5.00,0.00,22.3,23.0,00.0,31.3,24.3,13.9,-002.0,0010.99,0007.79,0007.53
2022-01-21 13:37:00,,0823.7,5.00,0.00,22.5,23.2,00.0,31.3,24.4,13.9,-001.9,0011.36,0007.83,0007.53
2022-01-21 13:38:00,,0823.7,4.99,0.00,22.5,23.0,00.0,31.3,24.4,13.9,-001.7,0011.85,0007.84,0007.54
2022-01-21 13:39:00,,0823.6,4.99,0.00,22.5,22.7,00.0,31.3,24.4,13.8,-001.7,0012.22,0007.79,0007.46
2022-01-21 13:40:00,,0823.8,4.99,0.00,22.5,22.5,00.0,31.3,24.3,13.9,-001.6,0012.07,0007.65,0007.32
2022-01-21 13:41:00,,0823.9,5.00,0.00,22.5,22.4,00.0,31.3,24.3,13.9,-001.5,0012.10,0007.61,0007.23
2022-01-21 13:42:00,,0823.9,5.01,0.00,22.5,22.2,00.0,31.4,24.2,14.0,-001.2,0012.24,0007.54,0007.17
2022-01-21 13:43:00,,0823.9,4.98,0.00,22.4,22.1,00.0,31.4,24.2,14.1,-001.2,0012.06,0007.30,0006.91
2022-01-21 13:44:00,,0823.9,5.02,0.00,22.4,22.0,00.0,31.4,24.1,14.1,-001.5,0011.76,0007.06,0006.66
2022-01-21 13:45:00,,0823.9,4.99,0.00,22.4,21.9,00.0,31.4,24.1,14.1,-001.8,0011.64,0006.90,0006.50
2022-01-21 13:46:00,,0823.9,5.00,0.00,22.4,21.8,00.0,31.4,24.1,14.2,-001.5,0011.77,0006.75,0006.34
2022-01-21 13:47:00,,0823.9,5.00,0.00,22.3,21.8,00.0,31.4,24.0,14.2,-001.4,0011.88,0006.62,0006.23
2022-01-21 13:48:00,,0824.0,5.01,0.00,22.3,21.7,00.0,31.3,24.0,14.2,-001.4,0011.86,0006.57,0006.17
2022-01-21 13:49:00,,0824.0,5.00,0.00,22.3,21.7,00.0,31.3,24.0,14.2,-001.5,0012.48,0006.58,0006.16
2022-01-21 13:50:00,,0824.0,5.00,0.00,22.3,21.6,00.0,31.3,24.0,14.3,-001.7,0012.35,0006.66,0006.21
2022-01-21 13:51:00,,0824.0,5.02,0.00,22.3,21.6,00.0,31.3,24.0,14.3,-001.5,0012.88,0006.89,0006.37
2022-01-21 13:52:00,,0824.0,4.99,0.00,22.3,21.6,00.0,31.3,24.0,14.3,-001.4,0013.09,0007.00,0006.46
2022-01-21 13:53:00,,0824.1,5.01,0.00,22.3,21.6,00.0,31.3,24.0,14.3,-001.5,0013.29,0007.06,0006.49
2022-01-21 13:54:00,,0824.1,4.98,0.00,22.2,21.6,00.0,31.3,24.0,14.3,-001.3,0013.41,0007.16,0006.56
2022-01-21 13:55:00,,0824.1,5.03,0.00,22.2,21.5,00.0,31.3,23.9,14.3,-001.1,0013.71,0007.31,0006.70
2022-01-21 13:56:00,,0824.1,4.98,0.00,22.2,21.5,00.0,31.3,23.9,14.2,-001.1,0014.19,0007.53,0006.89
2022-01-21 13:57:00,,0824.2,5.01,0.00,22.2,21.6,00.0,31.2,23.9,14.2,-001.3,0014.48,0007.81,0007.12
2022-01-21 13:58:00,,0824.1,4.99,0.00,22.3,22.3,00.0,31.3,24.1,14.0,-001.2,0014.95,0008.14,0007.42
2022-01-21 13:59:00,,0824.2,5.00,0.00,22.4,23.1,00.0,31.3,24.4,13.9,-001.6,0016.49,0008.48,0007.77
